Date String (YYYY-MM-DD hh:mm:ss) UTC,Instrument flags,absolute air pressure of the measurement (hPa),sample flow rate (lpm),inlet stack bypass flow (lpm),air temperature of the measurement (°C),ambient temperature measured by the external sensor (°C),aerosol sample conditioner tube jacket temperature (°C),OPC LED temperature (°C),internal box temperature (°C),relative humidity of the measurement (%),span deviation,mass concentration of particles derived from Lorenz-Mie calculation of OPC scattering (μg/m³),mass concentration of particles derived from Lorenz-Mie calculation of OPC scattering (μg/m³),mass concentration of particles derived from Lorenz-Mie calculation of OPC scattering (μg/m³)
DateTimeUTC,F1_M11,P_M11,Q1_M11,Q2_M11,T1_M11,T2_M11,T3_M11,T4_M11,T5_M11,U1_M11,ZSPAN_M11,X0_M11,X2_M11,X1_M11
2023-12-17 15:00:00,SystemResetWarning,0832.2,5.00,000.00,022.7,021.8,000.0,030.9,024.1,7.7,0000.0,0003.12,0001.10,0000.92
2023-12-17 15:01:00,SystemResetWarning,0832.2,5.00,000.00,022.7,021.8,000.0,030.9,024.1,7.7,0000.0,0003.16,0001.12,0000.94
2023-12-17 15:02:00,SystemResetWarning,0832.2,5.00,000.00,022.7,021.8,000.0,030.9,024.1,7.8,0000.0,0003.21,0001.12,0000.95
2023-12-17 15:03:00,SystemResetWarning,0832.2,5.01,000.00,022.7,021.8,000.0,030.9,024.2,7.8,0000.0,0003.18,0001.13,0000.97
2023-12-17 15:04:00,SystemResetWarning,0832.3,5.00,000.00,022.7,021.9,000.0,030.9,024.2,7.8,0000.0,0003.23,0001.14,0000.97
2023-12-17 15:05:00,SystemResetWarning,0832.3,5.00,000.00,022.8,021.9,000.0,030.9,024.2,8.0,0000.0,0002.85,0001.13,0000.96
2023-12-17 15:06:00,SystemResetWarning,0832.3,4.99,000.00,022.8,021.9,000.0,030.9,024.2,8.0,0000.0,0002.84,0001.14,0000.96
2023-12-17 15:07:00,SystemResetWarning,0832.3,4.99,000.00,022.8,021.9,000.0,030.9,024.2,7.9,0000.0,0002.81,0001.13,0000.97
2023-12-17 15:08:00,SystemResetWarning,0832.3,5.01,000.00,022.8,021.9,000.0,031.0,024.2,7.8,0000.0,0002.81,0001.12,0000.98
2023-12-17 15:09:00,SystemResetWarning,0832.4,5.01,000.00,022.8,021.9,000.0,031.0,024.2,7.6,0000.0,0002.86,0001.11,0000.99
2023-12-17 15:10:00,SystemResetWarning,0832.3,4.99,000.00,022.8,021.9,000.0,031.0,024.2,7.5,0000.0,0002.88,0001.12,0000.98
2023-12-17 15:11:00,SystemResetWarning,0832.4,4.99,000.00,022.8,021.8,000.0,031.0,024.2,7.5,0000.0,0002.18,0001.10,0000.97
2023-12-17 15:12:00,SystemResetWarning,0832.5,5.01,000.00,022.8,021.9,000.0,031.0,024.2,7.4,0000.0,0001.65,0001.11,0000.97
2023-12-17 15:13:00,SystemResetWarning,0832.5,5.01,000.00,022.8,021.9,000.0,031.0,024.2,7.5,0000.0,0001.51,0001.08,0000.95
2023-12-17 15:14:00,SystemResetWarning,0832.4,5.01,000.00,022.8,021.9,000.0,031.0,024.1,7.4,0000.0,0001.47,0001.05,0000.92
2023-12-17 15:15:00,SystemResetWarning,0832.4,4.98,000.00,022.8,021.9,000.0,031.0,024.2,7.4,0000.0,0001.36,0001.01,0000.90
2023-12-17 15:16:00,SystemResetWarning,0832.4,5.01,000.00,022.8,021.9,000.0,031.0,024.2,7.4,0000.0,0001.30,0000.98,0000.89
2023-12-17 15:17:00,SystemResetWarning,0832.4,5.01,000.00,022.8,021.9,000.0,031.0,024.2,7.3,0000.0,0001.33,0000.98,0000.88
2023-12-17 15:18:00,SystemResetWarning,0832.4,4.99,000.00,022.8,021.9,000.0,031.0,024.2,7.3,0000.0,0001.41,0001.00,0000.87
2023-12-17 15:19:00,SystemResetWarning,0832.4,4.99,000.00,022.8,021.9,000.0,031.0,024.2,7.4,0000.0,0001.40,0000.98,0000.84
2023-12-17 15:20:00,SystemResetWarning,0832.4,5.01,000.00,022.8,021.9,000.0,031.0,024.2,7.4,0000.0,0001.32,0000.96,0000.82
2023-12-17 15:21:00,SystemResetWarning,0832.4,5.02,000.00,022.9,021.9,000.0,031.0,024.2,7.6,0000.0,0001.34,0000.94,0000.81
2023-12-17 15:22:00,SystemResetWarning,0832.4,5.00,000.00,022.9,022.0,000.0,031.0,024.2,7.5,0000.0,0001.28,0000.91,0000.79
2023-12-17 15:23:00,SystemResetWarning,0832.4,4.98,000.00,022.9,022.0,000.0,031.1,024.2,7.5,0000.0,0001.32,0000.89,0000.76
2023-12-17 15:24:00,SystemResetWarning,0832.4,4.99,000.00,022.9,022.0,000.0,031.1,024.3,7.6,0000.0,0001.35,0000.89,0000.75
2023-12-17 15:25:00,SystemResetWarning,0832.4,5.00,000.00,022.9,022.0,000.0,031.1,024.3,7.5,0000.0,0001.44,0000.91,0000.76
2023-12-17 15:26:00,SystemResetWarning,0832.4,5.01,000.00,022.9,022.0,000.0,031.1,024.3,7.5,0000.0,0001.49,0000.91,0000.77
2023-12-17 15:27:00,SystemResetWarning,0832.3,5.00,000.00,022.9,022.0,000.0,031.1,024.3,7.4,0000.0,0001.52,0000.94,0000.78
2023-12-17 15:28:00,SystemResetWarning,0832.3,5.01,000.00,022.9,022.0,000.0,031.1,024.3,7.3,0000.0,0001.62,0000.96,0000.79
2023-12-17 15:29:00,SystemResetWarning,0832.3,5.00,000.00,022.9,022.0,000.0,031.1,024.3,7.4,0000.0,0001.54,0000.93,0000.79
2023-12-17 15:30:00,SystemResetWarning,0832.2,5.00,000.00,022.9,022.1,000.0,031.1,024.3,7.4,0000.0,0001.56,0000.94,0000.80
2023-12-17 15:31:00,SystemResetWarning,0832.2,5.00,000.00,022.9,022.1,000.0,031.1,024.3,7.4,0000.0,0001.60,0000.95,0000.80
2023-12-17 15:32:00,SystemResetWarning,0832.2,5.00,000.00,022.9,022.1,000.0,031.1,024.3,7.6,0000.0,0001.54,0000.95,0000.79
2023-12-17 15:33:00,SystemResetWarning,0832.2,5.00,000.00,023.0,022.1,000.0,031.1,024.3,7.4,0000.0,0001.58,0000.96,0000.80
2023-12-17 15:34:00,SystemResetWarning,0832.3,5.00,000.00,023.0,022.2,000.0,031.2,024.4,7.8,0000.0,0001.52,0000.96,0000.80
2023-12-17 15:35:00,SystemResetWarning,0832.3,4.99,000.00,023.0,022.2,000.0,031.2,024.4,8.1,0000.0,0001.42,0000.93,0000.79
2023-12-17 15:36:00,SystemResetWarning,0832.4,5.00,000.00,023.0,022.2,000.0,031.2,024.4,8.2,0000.0,0001.36,0000.91,0000.77
2023-12-17 15:37:00,SystemResetWarning,0832.5,5.00,000.00,023.0,022.2,000.0,031.2,024.4,8.2,0000.0,0001.38,0000.91,0000.77
2023-12-17 15:38:00,SystemResetWarning,0832.5,5.00,000.00,023.0,022.2,000.0,031.2,024.3,8.3,0000.0,0001.41,0000.89,0000.76
2023-12-17 15:39:00,SystemResetWarning,0832.5,5.00,000.00,023.0,022.2,000.0,031.2,024.3,8.4,0000.0,0001.41,0000.88,0000.74
2023-12-17 15:40:00,SystemResetWarning,0832.5,5.01,000.00,023.0,022.2,000.0,031.2,024.4,8.3,0000.0,0001.46,0000.89,0000.73
2023-12-17 15:41:00,SystemResetWarning,0832.5,5.01,000.00,023.0,022.2,000.0,031.2,024.4,8.2,0000.0,0001.45,0000.88,0000.72
2023-12-17 15:42:00,SystemResetWarning,0832.5,5.01,000.00,023.0,022.2,000.0,031.2,024.4,8.2,0000.0,0001.42,0000.88,0000.72
2023-12-17 15:43:00,SystemResetWarning,0832.6,4.98,000.00,023.0,022.2,000.0,031.2,024.4,8.1,0000.0,0001.39,0000.87,0000.71
2023-12-17 15:44:00,SystemResetWarning,0832.6,5.00,000.00,023.0,022.2,000.0,031.2,024.4,8.0,0000.0,0001.31,0000.85,0000.71
2023-12-17 15:45:00,SystemResetWarning,0832.6,5.00,000.00,023.1,022.2,000.0,031.2,024.4,7.9,0000.0,0001.29,0000.84,0000.70
2023-12-17 15:46:00,SystemResetWarning,0832.7,5.00,000.00,023.1,022.3,000.0,031.3,024.4,8.0,0000.0,0001.27,0000.83,0000.69
2023-12-17 15:47:00,SystemResetWarning,0832.7,5.01,000.00,023.1,022.3,000.0,031.3,024.5,8.2,0000.0,0001.31,0000.84,0000.69
2023-12-17 15:48:00,SystemResetWarning,0832.7,5.00,000.00,023.1,022.3,000.0,031.3,024.5,8.2,0000.0,0001.35,0000.84,0000.69
2023-12-17 15:49:00,SystemResetWarning,0832.7,5.00,000.00,023.1,022.3,000.0,031.3,024.5,8.2,0000.0,0001.41,0000.83,0000.68
2023-12-17 15:50:00,SystemResetWarning,0832.7,5.00,000.00,023.1,022.3,000.0,031.3,024.5,8.2,0000.0,0001.40,0000.83,0000.68
2023-12-17 15:51:00,SystemResetWarning,0832.7,5.00,000.00,023.1,022.4,000.0,031.3,024.6,8.3,0000.0,0001.33,0000.81,0000.67
2023-12-17 15:52:00,SystemResetWarning,0832.7,4.99,000.00,023.2,022.4,000.0,031.3,024.6,8.0,0000.0,0001.40,0000.80,0000.67
2023-12-17 15:53:00,SystemResetWarning,0833.0,4.99,000.00,023.2,022.4,000.0,031.3,024.6,8.3,0000.0,0001.38,0000.78,0000.66
2023-12-17 15:54:00,SystemResetWarning,0832.8,5.00,000.00,023.2,022.4,000.0,031.3,024.6,8.4,0000.0,0001.45,0000.79,0000.66
2023-12-17 15:55:00,SystemResetWarning,0832.7,5.01,000.00,023.2,022.4,000.0,031.4,024.6,8.3,0000.0,0001.52,0000.80,0000.65
2023-12-17 15:56:00,SystemResetWarning,0832.8,5.00,000.00,023.2,022.5,000.0,031.4,024.6,8.3,0000.0,0001.55,0000.82,0000.66
2023-12-17 15:57:00,SystemResetWarning,0832.8,5.00,000.00,023.2,022.5,000.0,031.4,024.7,8.2,0000.0,0001.55,0000.82,0000.66
2023-12-17 15:58:00,SystemResetWarning,0833.0,4.99,000.00,023.2,022.5,000.0,031.4,024.7,8.0,0000.0,0001.56,0000.80,0000.65
2023-12-17 15:59:00,SystemResetWarning,0833.3,5.00,000.00,023.3,022.5,000.0,031.4,024.7,8.0,0000.0,0001.60,0000.80,0000.64
